[[{"header":{"parameterUnit":"m.s-1","parameterCategory":1,"la1":30.2991,"la2":30.254,"lo1":-89.0895,"lo2":-89.0444,"dy":0.0017,"dx":0.0017,"nx":28,"ny":28,"refTime":"2024-06-28T09:00:00:Z","depth":0,"parameterNumber":2,"parameterNumberName":"U-component_of_WINDS"},"data":[0,0,0,0,0,0,0,0,0,0,0,0,0,0,0,0,0,0,0,0,0,0,0,0,0,0,0,0,0,0,0,0,0,0,0,0,0,0,0,0,0,0,0,0,0,0,0,0,0,0,0,0,0,0,0,0,0,0,3.9514,3.9514,0,3.9514,3.9514,3.9514,3.9398,3.9395,3.9392,3.9389,3.9393,3.9396,3.9399,0,0,0,0,0,0,0,0,0,0,0,0,0,3.9416,3.9419,3.9514,3.9514,3.9514,3.9514,3.9514,3.9514,3.9399,3.9395,3.9391,3.9388,3.9392,3.9395,3.9399,0,0,0,0,0,0,0,0,0,0,0,0,0,3.9442,3.9419,3.9514,3.9456,3.9451,3.9514,3.9514,3.9514,3.9399,3.9395,3.939,3.9386,3.9391,3.9395,3.9399,3.9518,0,0,3.9413,3.9415,0,0,0,0,0,0,0,0,3.9441,3.9446,3.9465,3.9461,3.9455,3.9451,3.9481,3.9516,3.9401,3.9419,3.9389,3.9384,3.9416,3.9418,3.9428,3.9519,3.9519,3.9413,3.9416,3.9418,3.9419,0,0,0,0,0,0,0,3.9439,3.9445,3.9514,3.9465,3.9459,3.9431,3.943,3.9487,3.9444,3.9417,3.9409,3.941,3.9413,3.9425,3.9428,3.9519,3.9413,3.9417,3.942,3.9422,3.9701,3.9706,0,0,0,0,0,0,3.9445,3.9444,3.9514,3.9514,3.9436,3.9437,3.9435,3.9457,3.9443,3.9436,3.9414,3.9405,3.9419,3.9423,3.9427,3.9561,3.9418,3.9422,3.9425,3.9697,3.9702,3.9707,0,0,0,0,0,0,3.9443,3.9452,3.9514,3.9477,3.9482,3.9443,3.9469,3.946,3.9471,3.944,3.9432,3.9434,3.9416,3.9421,3.9495,3.956,3.9424,3.9428,3.9691,3.9698,3.9705,3.9834,0,0,0,0,0,0,3.9441,3.9452,3.9497,3.9479,3.9485,3.9582,3.9473,3.9463,3.9478,3.9466,3.9457,3.9451,3.9413,3.9489,3.95,3.9564,3.9432,3.9685,3.9694,3.9703,3.9823,3.9844,3.9862,0,0,0,0,0,3.9438,3.9535,3.95,3.9509,3.954,3.9586,3.959,3.9543,3.9484,3.9528,3.9508,3.9451,3.9552,3.9498,3.9509,3.9575,3.9681,3.9692,3.9702,3.9815,3.984,3.9862,0,0,0,0,0,0,3.9565,3.9532,3.9492,3.9587,3.959,3.9566,3.9621,3.9572,3.9593,3.9581,3.9523,3.9522,3.9604,3.9597,3.9537,3.9687,3.9606,3.9619,3.9688,3.9712,3.9731,3.973,3.9435,0,0,0,0,0,3.9604,3.9643,3.9612,3.9699,3.9702,3.9662,3.968,3.9643,3.9644,3.9646,3.9631,3.9635,3.9667,3.969,3.9718,3.9823,3.9817,3.9873,3.9893,3.9909,3.9921,3.9971,3.9995,3.9743,3.9743,3.9742,0,0,3.9685,3.9671,3.97,3.9724,3.9722,3.9763,3.9663,3.9713,3.9743,3.9654,3.972,3.971,3.9711,3.9799,3.9838,3.9796,3.9989,3.9923,3.9936,3.9938,3.9985,4.0008,4.003,3.975,3.9749,3.9748,0,0,3.9852,3.9848,3.9916,3.9915,3.9912,3.9884,3.9901,3.9884,3.9873,3.9939,3.9871,3.9907,3.9965,3.9966,3.9975,4.014,4.0087,4.0151,4.0252,4.0302,4.0322,4.0339,4.0394,4.0415,4.0163,4.0164,4.0164,0,3.9954,4.0012,3.9959,4.001,4.0021,3.994,4.0009,4.0011,4.0019,4.0028,3.9982,4.0049,4.0044,4.013,4.0169,4.0181,4.0196,4.0151,4.0323,4.034,4.0355,4.0407,4.0428,4.0171,4.017,4.0169,4.0169,0,4.0135,4.0177,4.0233,4.0238,4.0256,4.0317,4.0271,4.0296,4.0257,4.0234,4.0301,4.0292,4.0315,4.0333,4.0298,4.0413,4.0387,4.0333,4.025,4.0387,4.0435,4.0455,4.0182,4.0179,4.0177,4.0175,0,0,4.0383,4.0355,4.0376,4.0376,4.0365,4.0396,4.0453,4.0472,4.0493,4.0501,4.0545,4.0594,4.0542,4.0552,4.0516,4.056,4.0686,4.05,4.0499,4.0532,4.0808,4.0847,4.0871,4.0652,4.0655,4.0658,4.0807,0,4.0542,4.0633,4.0585,4.0683,4.0719,4.0641,4.0689,4.0688,4.0668,4.0695,4.0673,4.0707,4.0639,4.0643,4.0684,4.0662,4.074,4.0651,4.069,4.0692,4.0689,4.0896,4.0937,4.1078,4.0826,4.0829,4.0831,0,4.074,4.0751,4.0852,4.083,4.0843,4.0888,4.0899,4.0928,4.0924,4.0906,4.0915,4.0867,4.0919,4.0839,4.0909,4.0849,4.0863,4.0854,4.0859,4.0858,4.0768,4.0898,4.1122,4.1142,4.0861,4.0858,4.0856,0,4.0905,4.0947,4.1011,4.1014,4.0991,4.1023,4.1016,4.1007,4.1021,4.1033,4.104,4.106,4.1069,4.1085,4.1043,4.0988,4.1117,4.1034,4.1102,4.1103,4.1131,4.1129,4.1357,4.1146,4.1145,4.1145,4.1144,0,4.1085,4.1149,4.1084,4.1124,4.1192,4.1136,4.1206,4.119,4.1182,4.1217,4.1153,4.1187,4.113,4.1159,4.1127,4.1188,4.1194,4.1179,4.1169,4.1183,4.1184,4.1189,4.1177,4.115,4.1149,4.1148,4.1147,0,4.1281,4.1241,4.1304,4.1277,4.1271,4.1322,4.1298,4.1333,4.1308,4.1352,4.1359,4.1319,4.1349,4.1308,4.1336,4.1314,4.1396,4.1373,4.1396,4.1388,4.1457,4.1449,4.1693,4.1721,4.1495,4.1497,4.1499,0,4.1397,4.1443,4.1419,4.1436,4.1431,4.1461,4.1473,4.142,4.1436,4.1433,4.1468,4.1492,4.1507,4.1559,4.1532,4.1551,4.1526,4.161,4.1529,4.154,4.1523,4.1519,4.1522,4.1626,4.1629,4.1631,4.1633,0,4.1606,4.1582,4.1602,4.1613,4.1629,4.1637,4.164,4.1658,4.1602,4.1623,4.1651,4.1663,4.1688,4.1712,4.1723,4.1716,4.1665,4.1659,4.1675,4.1688,4.1698,4.1689,4.1438,4.1653,4.1651,4.165,4.1649,4.1648,4.1762,4.1798,4.1785,4.1808,4.1804,4.1807,4.1837,4.1813,4.1835,4.1849,4.1817,4.1852,4.1845,4.1855,4.1853,4.1879,4.1843,4.1867,4.1873,4.1878,4.1887,4.1696,4.1882,4.1881,4.1881,4.188,4.188,0,4.1963,4.195,4.1972,4.1976,4.1994,4.1943,4.1943,4.1961,4.1991,4.1988,4.2004,4.2034,4.2056,4.2031,4.2048,4.2074,4.205,4.2079,4.2075,4.2074,4.1921,4.1903,4.2098,4.2098,4.2098,4.2097,4.2097,4.2097,4.207,4.2126,4.2101,4.2154,4.2141,4.2172,4.2176,4.2179,4.2175,4.2211,4.2227,4.221,4.2197,4.2212,4.2229,4.2221,4.2229,4.2266,4.2249,4.2106,4.2085,4.2065,4.2047,4.2269,4.2269,4.2399,4.24,4.2401]},{"header":{"parameterUnit":"m.s-1","parameterCategory":1,"la1":30.2991,"la2":30.254,"lo1":-89.0895,"lo2":-89.0444,"dy":0.0017,"dx":0.0017,"nx":28,"ny":28,"refTime":"2024-06-28T09:00:00:Z","depth":0,"parameterNumber":3,"parameterNumberName":"V-component_of_WINDS"},"data":[0,0,0,0,0,0,0,0,0,0,0,0,0,0,0,0,0,0,0,0,0,0,0,0,0,0,0,0,0,0,0,0,0,0,0,0,0,0,0,0,0,0,0,0,0,0,0,0,0,0,0,0,0,0,0,0,0,0,4.3721,4.3722,0,4.3862,4.3864,4.3865,4.3853,4.3851,4.3849,4.3847,4.3987,4.3993,4.3999,0,0,0,0,0,0,0,0,0,0,0,0,0,4.3434,4.344,4.3721,4.3722,4.3724,4.3862,4.3864,4.3866,4.3853,4.3851,4.3848,4.3846,4.3986,4.3992,4.3999,0,0,0,0,0,0,0,0,0,0,0,0,0,4.3565,4.3442,4.372,4.3735,4.3737,4.3861,4.3864,4.3866,4.3854,4.3851,4.3848,4.3845,4.3983,4.3992,4.4,4.4118,0,0,4.4026,4.403,0,0,0,0,0,0,0,0,4.3558,4.3576,4.3731,4.3734,4.3737,4.3837,4.3814,4.395,4.3855,4.381,4.3847,4.3843,4.394,4.3952,4.3985,4.4124,4.413,4.4027,4.4032,4.4036,4.4039,0,0,0,0,0,0,0,4.3549,4.357,4.3776,4.3733,4.3737,4.3732,4.3747,4.384,4.3891,4.3813,4.3813,4.383,4.3941,4.3977,4.3988,4.4132,4.4027,4.4035,4.404,4.4043,4.4372,4.4375,0,0,0,0,0,0,4.3537,4.3562,4.3772,4.3781,4.3638,4.374,4.3757,4.3808,4.389,4.3899,4.3833,4.3829,4.3964,4.3978,4.3993,4.4135,4.4036,4.4044,4.4049,4.4368,4.4373,4.4376,0,0,0,0,0,0,4.3531,4.3556,4.3766,4.3671,4.3698,4.3748,4.3806,4.3812,4.3849,4.3904,4.3913,4.3861,4.3962,4.3981,4.4086,4.4139,4.4048,4.4056,4.4364,4.437,4.4374,4.4419,0,0,0,0,0,0,4.3523,4.3554,4.3601,4.3673,4.3703,4.3859,4.3809,4.3818,4.3864,4.3861,4.3933,4.3942,4.3961,4.4074,4.4095,4.415,4.4063,4.4359,4.4366,4.4373,4.4414,4.4426,4.4436,0,0,0,0,0,4.3513,4.3607,4.3603,4.3628,4.3763,4.3862,4.3879,4.3901,4.3868,4.3915,4.395,4.3939,4.413,4.4085,4.4108,4.4166,4.4356,4.4365,4.4372,4.4408,4.4423,4.4436,0,0,0,0,0,0,4.354,4.3617,4.3613,4.3734,4.3792,4.386,4.3919,4.3916,4.3983,4.3977,4.3999,4.4015,4.4121,4.4154,4.4102,4.4283,4.4239,4.4252,4.4258,4.4272,4.4284,4.4273,4.407,0,0,0,0,0,4.356,4.3636,4.3699,4.3799,4.3828,4.3869,4.3913,4.3924,4.3984,4.4008,4.4051,4.4108,4.4181,4.4228,4.4298,4.4418,4.4432,4.4469,4.448,4.4489,4.4501,4.4564,4.4581,4.4403,4.4403,4.4403,0,0,4.3602,4.3653,4.37,4.3806,4.3852,4.3928,4.3889,4.3972,4.4029,4.402,4.4123,4.4156,4.4221,4.4333,4.4385,4.4364,4.4553,4.45,4.4506,4.4513,4.4574,4.4591,4.4606,4.4408,4.4407,4.4406,0,0,4.3717,4.3765,4.3853,4.39,4.397,4.3996,4.4017,4.4085,4.4108,4.4211,4.4206,4.4271,4.4397,4.4443,4.4483,4.4613,4.4605,4.4635,4.4694,4.4756,4.477,4.4782,4.4828,4.4844,4.4646,4.4646,4.4646,0,4.3761,4.3877,4.3899,4.3982,4.4028,4.4024,4.4112,4.4156,4.4245,4.4275,4.4251,4.4407,4.445,4.4573,4.4604,4.4637,4.466,4.4627,4.4766,4.4779,4.4791,4.4834,4.4852,4.4649,4.4648,4.4648,4.4648,0,4.3926,4.4007,4.4069,4.4156,4.4208,4.4294,4.4326,4.4376,4.4382,4.441,4.4513,4.4565,4.4645,4.4674,4.4681,4.4797,4.4782,4.4762,4.4718,4.4811,4.4852,4.4869,4.4653,4.4652,4.4651,4.4651,0,0,4.4065,4.4161,4.4183,4.4221,4.4297,4.4359,4.4443,4.4522,4.4564,4.4624,4.4694,4.4799,4.478,4.4825,4.4836,4.489,4.4988,4.4863,4.4865,4.4884,4.5118,4.5132,4.5152,4.4983,4.4987,4.4989,4.5112,0,4.4187,4.4338,4.4358,4.449,4.4564,4.456,4.4633,4.4686,4.4713,4.4778,4.4808,4.4881,4.4852,4.4879,4.4932,4.4965,4.5036,4.4957,4.5047,4.505,4.5031,4.5173,4.519,4.5303,4.5128,4.5131,4.5133,0,4.4351,4.4417,4.4557,4.4621,4.4653,4.4718,4.479,4.4853,4.4912,4.4928,4.4977,4.4981,4.5065,4.5017,4.5133,4.5078,4.5116,4.5137,4.5142,4.5152,4.5097,4.5186,4.534,4.5357,4.5159,4.5157,4.5155,0,4.4437,4.456,4.4659,4.4692,4.477,4.4816,4.485,4.4906,4.4951,4.5014,4.5043,4.5114,4.5153,4.5207,4.5229,4.5192,4.5342,4.5297,4.5357,4.5356,4.5389,4.5387,4.5551,4.5414,4.5413,4.5413,4.5413,0,4.4572,4.4658,4.4699,4.476,4.4854,4.4876,4.4968,4.5,4.505,4.5115,4.5116,4.5177,4.5202,4.5267,4.5284,4.5376,4.5393,4.5407,4.5411,4.5407,4.5406,4.5432,4.5425,4.5417,4.5416,4.5416,4.5415,0,4.4684,4.4716,4.4823,4.4887,4.4905,4.4972,4.5026,4.5084,4.511,4.5193,4.5213,4.5254,4.5329,4.5356,4.5448,4.546,4.5566,4.5563,4.5547,4.5547,4.5606,4.56,4.5793,4.5819,4.5665,4.5666,4.5667,0,4.4769,4.4834,4.4905,4.495,4.4985,4.5057,4.5103,4.5125,4.5173,4.5244,4.5293,4.5368,4.543,4.5551,4.5587,4.5657,4.5655,4.5718,4.5665,4.5659,4.5655,4.5651,4.5657,4.5728,4.5729,4.5731,4.5732,0,4.4914,4.4926,4.4993,4.5066,4.5121,4.5179,4.5235,4.527,4.53,4.5354,4.5432,4.5479,4.5573,4.5647,4.5718,4.5751,4.5746,4.5748,4.5765,4.5762,4.575,4.5757,4.5573,4.5743,4.5742,4.5741,4.5741,4.574,4.5015,4.5072,4.5131,4.5205,4.5249,4.5301,4.5358,4.5391,4.5457,4.5536,4.5544,4.5627,4.5682,4.5777,4.5813,4.5877,4.5859,4.5885,4.5891,4.5897,4.5901,4.574,4.589,4.5889,4.5889,4.5889,4.5889,0,4.516,4.5197,4.5265,4.5343,4.5401,4.5392,4.5453,4.5501,4.5575,4.5627,4.5688,4.5776,4.5847,4.5889,4.596,4.6003,4.6002,4.6021,4.6018,4.6025,4.5913,4.5891,4.602,4.602,4.602,4.602,4.602,4.602,4.5242,4.5338,4.5357,4.5474,4.551,4.5592,4.5628,4.5674,4.5716,4.5815,4.5875,4.5902,4.5949,4.6023,4.6087,4.6097,4.6123,4.6143,4.6152,4.6047,4.6033,4.602,4.5999,4.6149,4.6149,4.6258,4.6259,4.626]}]]